Location: Caltech
(34.1382°N, 118.1253°W)
Time: 08:17:17
(UTC-08:00)

CZ-4B DEB - Visible Passes

Search period start: 22 February 2018 00:00
Search period end: 04 March 2018 00:00
Orbit: 840 x 863 km, 99.0° (Epoch: 21 February)

Date Brightness Start Highest point End Pass type
(mag) Time Alt. Az. Time Alt. Az. Time Alt. Az.
22 Feb 6.3 03:11:26 10° NE 03:14:53 23° E 03:14:53 23° E visible
22 Feb 4.6 04:51:30 10° N 04:56:30 37° WNW 04:56:55 37° W visible
23 Feb 6.6 03:00:27 10° NE 03:03:25 18° E 03:03:25 18° E visible
23 Feb 4.3 04:39:47 10° N 04:45:02 48° WNW 04:45:27 47° W visible
24 Feb 6.9 02:49:47 10° ENE 02:51:57 14° E 02:51:57 14° E visible
24 Feb 4.1 04:28:08 10° N 04:33:33 62° WNW 04:34:00 60° W visible
25 Feb 7.1 02:40:28 10° E 02:40:30 10° E 02:40:30 10° E visible
25 Feb 4.0 04:16:32 10° N 04:22:03 80° WNW 04:22:33 72° SW visible
26 Feb 4.2 04:05:01 10° NNE 04:10:31 80° ESE 04:11:05 71° SSE visible
26 Feb 5.9 05:48:33 10° NW 05:50:28 12° WNW 05:52:23 10° W visible
27 Feb 4.5 03:53:31 10° NNE 03:58:59 62° ESE 03:59:38 57° SE visible
27 Feb 5.7 05:35:59 10° NNW 05:39:05 15° WNW 05:41:40 11° W visible
28 Feb 5.0 03:42:06 10° NNE 03:47:26 47° E 03:48:10 45° SE visible
28 Feb 5.5 05:23:51 10° NNW 05:27:42 20° WNW 05:30:12 15° W visible
01 Mar 5.5 03:30:47 10° NNE 03:35:51 37° E 03:36:43 34° ESE visible
01 Mar 5.2 05:11:53 10° NNW 05:16:16 25° WNW 05:18:45 18° WSW visible
02 Mar 5.9 03:19:32 10° NE 03:24:15 28° E 03:25:16 27° ESE visible
02 Mar 4.9 05:00:02 10° N 05:04:50 32° WNW 05:07:18 22° WSW visible
03 Mar 6.3 03:08:25 10° NE 03:12:38 22° E 03:13:48 21° ESE visible
03 Mar 4.6 04:48:16 10° N 04:53:23 41° WNW 04:55:50 26° WSW visible
